STARLINK-2490

Last updated on Sat May 08 2021 00:02:05 GMT+0000 (Coordinated Universal Time)

1 48147U 21027BH 21127.58334491 -.00977299 00000-0 -18158-1 0 9995 2 48147 53.0480 192.4679 0001228 74.7308 225.6064 15.50882031 1768

Satellite not in orbit